Flint, MI

4:50 PM EST on November 17, 2018 (GMT -0500)
Bishop International

Weather History for KFNT - November, 2018

Change the Weather History Date:

Friday, November 9, 2018

  Actual Average Record
Temperature  
Mean Temperature 31 °F 42 °F  
Max Temperature 36 °F 50 °F 73 °F (1999)
Min Temperature 25 °F 33 °F 14 °F (1991)
Degree Days  
Heating Degree Days 34 24  
Month to date heating degree days 220 199  
Since 1 July heating degree days 850 895  
Cooling Degree Days 0 0  
Month to date cooling degree days 0 0  
Year to date cooling degree days 796 531  
Moisture  
Dew Point 29 °F    
Average Humidity 80    
Maximum Humidity 96    
Minimum Humidity 63    
Precipitation  
Precipitation 0.15 in 0.09 in 1.58 in (2005)
Month to date precipitation 0.90 0.81  
Year to date precipitation 33.44 27.59  
Snow  
Snow 1.60 in 0.00 in 2.60 in (1971)
Month to date snowfall 1.6 0.2  
Since 1 July snowfall 1.6 0.6  
Since 1 September snowfall 1.6 0.6  
Snow Depth T in    
Sea Level Pressure  
Sea Level Pressure 30.04 in    
Wind  
Wind Speed 10 mph (East)    
Max Wind Speed 30 mph    
Max Gust Speed 38 mph    
Visibility 6 miles    
Events Fog , Rain , Snow    
T = Trace of Precipitation, MM = Missing Value Source: NWS Daily Summary

Daily Weather History Graph

Daily Weather History Graph

Search for Another Location

Airport or City:

Astronomy

Nov. 09, 2018 Rise Set
Actual Time 7:19 AM EST 5:17 PM EST
Civil Twilight 6:49 AM EST 5:47 PM EST
Nautical Twilight 6:15 AM EST 6:21 PM EST
Astronomical Twilight 5:42 AM EST 6:54 PM EST
Moon 9:09 AM EST (11/9) 7:00 PM EST (11/9)
Length of Visible Light 10h 57m
Length of Day
9h 57m
Waxing Crescent, 5% of the Moon is Illuminated
Nov 9
Waxing Crescent
Nov 15
First Quarter
Nov 23
Full
Nov 29
Last Quarter
Dec 7
New

Hourly Weather History & Observations

Time (EST) Temp. Windchill Dew Point Humidity Pressure Visibility Wind Dir Wind Speed Gust Speed Precip Events Conditions
12:53 AM 33.1 °F 27.7 °F 26.1 °F 75% 30.32 in 10.0 mi East 5.8 mph - N/A   Overcast
1:53 AM 34.0 °F 28.8 °F 26.1 °F 73% 30.30 in 10.0 mi East 5.8 mph - N/A   Overcast
2:53 AM 34.0 °F 28.8 °F 27.0 °F 75% 30.29 in 10.0 mi East 5.8 mph - N/A   Overcast
3:53 AM 34.0 °F 28.8 °F 27.0 °F 75% 30.26 in 10.0 mi East 5.8 mph - N/A   Overcast
4:53 AM 34.0 °F 26.0 °F 26.1 °F 73% 30.19 in 10.0 mi ENE 10.4 mph - N/A   Overcast
5:53 AM 33.1 °F 24.9 °F 28.0 °F 82% 30.17 in 2.5 mi East 10.4 mph - 0.00 in Snow Light Snow
6:22 AM 32.0 °F 22.1 °F 28.9 °F 88% 30.12 in 4.0 mi ENE 13.8 mph - 0.00 in Snow Light Snow
6:33 AM 32.0 °F 23.0 °F 28.9 °F 88% 30.11 in 4.0 mi East 11.5 mph - 0.00 in Snow Light Snow
6:46 AM 32.0 °F 23.0 °F 30.0 °F 92% 30.11 in 2.5 mi East 11.5 mph - 0.00 in Snow Light Snow
6:53 AM 32.0 °F 24.8 °F 30.0 °F 92% 30.14 in 2.0 mi East 8.1 mph - 0.00 in Snow Light Snow
7:03 AM 32.0 °F 24.8 °F 30.0 °F 92% 30.11 in 2.0 mi East 8.1 mph - 0.01 in Snow Light Snow
7:18 AM 32.0 °F 24.8 °F 30.0 °F 92% 30.11 in 1.8 mi East 8.1 mph - 0.01 in Snow Light Snow
7:27 AM 32.0 °F 25.6 °F 30.0 °F 92% 30.11 in 2.5 mi East 6.9 mph - 0.01 in Snow Light Snow
7:46 AM 32.0 °F 26.4 °F 30.9 °F 96% 30.10 in 0.8 mi East 5.8 mph - 0.02 in Snow Light Snow
7:53 AM 32.0 °F 26.4 °F 30.9 °F 96% 30.13 in 0.8 mi East 5.8 mph - 0.02 in Snow Light Snow
8:09 AM 32.0 °F 26.4 °F 30.9 °F 96% 30.09 in 0.8 mi ENE 5.8 mph - 0.01 in Snow Light Snow
8:45 AM 32.0 °F 27.5 °F 30.9 °F 96% 30.09 in 0.5 mi ENE 4.6 mph - 0.02 in Fog , Snow Snow
8:53 AM 32.0 °F 26.4 °F 30.9 °F 96% 30.11 in 0.5 mi ENE 5.8 mph - 0.02 in Fog , Snow Snow
9:21 AM 32.0 °F 26.4 °F 30.9 °F 96% 30.06 in 1.0 mi ENE 5.8 mph - 0.02 in Snow Light Snow
9:53 AM 33.1 °F 26.1 °F 30.9 °F 92% 30.06 in 1.5 mi East 8.1 mph - 0.02 in Snow Light Snow
10:03 AM 33.1 °F 26.1 °F 30.9 °F 92% 30.03 in 2.0 mi East 8.1 mph - 0.00 in Snow Light Snow
10:19 AM 33.1 °F 26.1 °F 30.9 °F 92% 30.02 in 4.0 mi East 8.1 mph - 0.00 in Snow Light Snow
10:53 AM 33.1 °F 27.7 °F 30.9 °F 92% 30.03 in 7.0 mi East 5.8 mph - 0.07 in   Overcast
11:53 AM 34.0 °F 31.0 °F 32.0 °F 92% 29.99 in 9.0 mi ESE 3.5 mph - 0.00 in   Overcast
12:53 PM 35.1 °F - 32.0 °F 89% 29.95 in 8.0 mi Calm Calm - N/A   Overcast
1:53 PM 35.1 °F 31.0 °F 32.0 °F 89% 29.93 in 10.0 mi SW 4.6 mph - N/A   Overcast
2:10 PM 35.1 °F 30.1 °F 33.1 °F 92% 29.89 in 10.0 mi WSW 5.8 mph - N/A   Overcast
2:53 PM 36.0 °F 29.6 °F 33.1 °F 89% 29.91 in 10.0 mi West 8.1 mph - N/A   Overcast
3:53 PM 35.1 °F 27.9 °F 32.0 °F 89% 29.89 in 10.0 mi WSW 9.2 mph - 0.00 in Rain Light Rain
4:21 PM 35.1 °F 27.9 °F 32.0 °F 89% 29.87 in 10.0 mi WSW 9.2 mph - 0.00 in Rain Light Rain
4:48 PM 35.6 °F 28.6 °F 32.0 °F 87% 29.87 in 7.0 mi West 9.2 mph - 0.01 in Rain Light Rain
4:53 PM 34.0 °F 26.6 °F 32.0 °F 92% 29.89 in 7.0 mi WSW 9.2 mph - 0.01 in Rain Light Rain
5:27 PM 34.0 °F 26.6 °F 32.0 °F 92% 29.86 in 6.0 mi WSW 9.2 mph - 0.00 in Snow Light Snow
5:37 PM 34.0 °F 27.2 °F 32.0 °F 92% 29.86 in 6.0 mi WSW 8.1 mph - 0.01 in Snow Light Snow
5:53 PM 34.0 °F 26.6 °F 32.0 °F 92% 29.89 in 5.0 mi WSW 9.2 mph - 0.01 in Snow Light Snow
6:11 PM 34.0 °F 25.0 °F 32.0 °F 92% 29.87 in 8.0 mi West 12.7 mph - 0.00 in   Overcast
6:42 PM 33.1 °F 20.1 °F 30.0 °F 89% 29.88 in 9.0 mi West 25.3 mph 33.4 mph 0.00 in Snow Light Snow
6:53 PM 33.1 °F 22.2 °F 30.0 °F 89% 29.91 in 9.0 mi West 17.3 mph 29.9 mph 0.00 in   Overcast
7:53 PM 32.0 °F 19.2 °F 26.1 °F 79% 29.94 in 10.0 mi West 23.0 mph 35.7 mph N/A   Overcast
8:53 PM 28.9 °F 15.4 °F 18.0 °F 64% 29.96 in 10.0 mi West 21.9 mph 35.7 mph N/A   Scattered Clouds
9:53 PM 27.0 °F 13.5 °F 16.0 °F 63% 29.98 in 10.0 mi WNW 19.6 mph 32.2 mph N/A   Partly Cloudy
10:53 PM 27.0 °F 14.3 °F 16.0 °F 63% 29.99 in 10.0 mi West 17.3 mph 25.3 mph N/A   Clear
11:53 PM 26.1 °F 16.2 °F 16.0 °F 66% 29.98 in 10.0 mi West 10.4 mph - N/A   Clear